Weather History for KCDW - January, 2014

Change the Weather History Date:

Monday, January 13, 2014

  Actual Average Record
Temperature  
Mean Temperature 38 °F -  
Max Temperature 50 °F 33 °F 55 °F (2005)
Min Temperature 26 °F 15 °F -6 °F (1981)
Degree Days  
Heating Degree Days 27    
Moisture  
Dew Point 30 °F    
Average Humidity 68    
Maximum Humidity 89    
Minimum Humidity 52    
Precipitation  
Precipitation 0.00 in - - ()
Sea Level Pressure  
Sea Level Pressure 30.06 in    
Wind  
Wind Speed 2 mph (SSW)    
Max Wind Speed 7 mph    
Max Gust Speed -    
Visibility 10 miles    
Events      
Averages and records for this station are not official NWS values.
T = Trace of Precipitation, MM = Missing Value Source: NWS Daily Summary

Daily Weather History Graph

Daily Weather History Graph

Search for Another Location

Airport or City:

Trip Planner

Search our weather history database for the weather conditions in past years. The results will help you decide how hot, cold, wet, or windy it might be!

Date:

Astronomy

Jan. 13, 2014 Rise Set
Actual Time 7:20 AM EST 4:51 PM EST
Civil Twilight 6:49 AM EST 5:22 PM EST
Nautical Twilight 6:16 AM EST 5:56 PM EST
Astronomical Twilight 5:43 AM EST 6:29 PM EST
Moon 3:04 PM EST (1/13) 5:06 AM EST (1/13)
Length of Visible Light 10h 32m
Length of Day
9h 31m
Waxing Gibbous, 95% of the Moon is Illuminated
Jan 13
Waxing Gibbous
Jan 15
Full
Jan 24
Last Quarter
Jan 30
New
Feb 6
First Quarter

Hourly Weather History & Observations

Time (EST) Temp. Windchill Dew Point Humidity Pressure Visibility Wind Dir Wind Speed Gust Speed Precip Events Conditions
12:53 AM 32.0 °F 28.7 °F 25.0 °F 75% 30.11 in 10.0 mi SW 3.5 mph - N/A   Clear
1:53 AM 34.0 °F 31.0 °F 25.0 °F 70% 30.13 in 10.0 mi SSW 3.5 mph - N/A   Clear
2:53 AM 32.0 °F - 24.1 °F 73% 30.14 in 10.0 mi Calm Calm - N/A   Clear
3:53 AM 28.0 °F - 23.0 °F 81% 30.14 in 10.0 mi Calm Calm - N/A   Clear
4:53 AM 27.0 °F - 23.0 °F 85% 30.14 in 9.0 mi Calm Calm - N/A   Clear
5:53 AM 27.0 °F - 24.1 °F 89% 30.16 in 9.0 mi Calm Calm - N/A   Clear
6:53 AM 26.1 °F - 23.0 °F 88% 30.16 in 8.0 mi Calm Calm - N/A   Clear
7:53 AM 27.0 °F - 24.1 °F 89% 30.16 in 6.0 mi Calm Calm - N/A   Clear
8:53 AM 32.0 °F - 27.0 °F 82% 30.18 in 7.0 mi Calm Calm - N/A   Clear
9:53 AM 37.0 °F - 28.0 °F 70% 30.17 in 8.0 mi Calm Calm - N/A   Clear
10:53 AM 44.1 °F - 30.0 °F 58% 30.13 in 10.0 mi Calm Calm - N/A   Clear
11:53 AM 46.0 °F 43.1 °F 30.0 °F 54% 30.09 in 10.0 mi Variable 5.8 mph - N/A   Clear
12:53 PM 48.0 °F - 30.9 °F 52% 30.06 in 10.0 mi SSE 6.9 mph - N/A   Clear
1:53 PM 48.9 °F - 34.0 °F 56% 30.03 in 10.0 mi SSE 3.5 mph - N/A   Clear
2:53 PM 50.0 °F - 37.0 °F 61% 30.01 in 10.0 mi ESE 4.6 mph - N/A   Clear
3:53 PM 50.0 °F - 36.0 °F 59% 29.99 in 10.0 mi Calm Calm - N/A   Clear
4:53 PM 46.9 °F - 35.1 °F 63% 29.98 in 10.0 mi Calm Calm - N/A   Clear
5:53 PM 42.1 °F - 34.0 °F 73% 29.99 in 10.0 mi Calm Calm - N/A   Clear
6:53 PM 48.9 °F - 33.1 °F 54% 29.98 in 10.0 mi SSW 4.6 mph - N/A   Clear
7:53 PM 48.0 °F - 32.0 °F 54% 29.97 in 10.0 mi Variable 5.8 mph - N/A   Clear
8:53 PM 48.0 °F - 32.0 °F 54% 29.96 in 10.0 mi SSW 3.5 mph - N/A   Clear
9:53 PM 44.1 °F - 32.0 °F 63% 29.95 in 10.0 mi Calm Calm - N/A   Clear
10:53 PM 46.9 °F - 33.1 °F 59% 29.93 in 10.0 mi Calm Calm - N/A   Clear
11:53 PM 45.0 °F 43.5 °F 33.1 °F 63% 29.92 in 10.0 mi West 3.5 mph - N/A   Clear